[[{"header":{"parameterUnit":"m.s-1","parameterCategory":2,"la1":30.2991,"la2":30.254,"lo1":-89.0895,"lo2":-89.0444,"dy":0.0017,"dx":0.0017,"nx":28,"ny":28,"refTime":"2023-08-07T21:00:00:Z","depth":"0","parameterNumber":2,"parameterNumberName":"U-component_of_CURRENTS"},"data":[0,0,0,0,0,0,0,0,0,0,0,0,0,0,0,0,0,0,0,0,0,0,0,0,0,0,0,0,0,0,0,0,0,0,0,0,0,0,0,0,0,0,0,0,0,0,0,0,0,0,0,0,0,0,0,0,0,0,0.2498,0.2499,0,0.2586,0.2587,0.2589,0.2619,0.2618,0.2618,0.2618,0.2599,0.2599,0.2599,0,0,0,0,0,0,0,0,0,0,0,0,0,0.2386,0.2388,0.2498,0.2499,0.25,0.2586,0.2588,0.2589,0.2619,0.2618,0.2618,0.2617,0.2599,0.2599,0.2599,0,0,0,0,0,0,0,0,0,0,0,0,0,0.2452,0.2389,0.2497,0.2524,0.2527,0.2586,0.2588,0.2589,0.2619,0.2618,0.2618,0.2617,0.2599,0.2599,0.2599,0.2613,0,0,0.2599,0.2599,0,0,0,0,0,0,0,0,0.2448,0.2456,0.2519,0.2522,0.2526,0.259,0.2542,0.2591,0.2619,0.2586,0.2618,0.2617,0.2586,0.2587,0.2608,0.2612,0.2611,0.2599,0.2599,0.2599,0.2599,0,0,0,0,0,0,0,0.2443,0.2453,0.2534,0.252,0.2525,0.2543,0.2551,0.2552,0.2587,0.2588,0.2591,0.2599,0.2587,0.2609,0.2608,0.2611,0.2599,0.2599,0.2599,0.2599,0.2687,0.2689,0,0,0,0,0,0,0.243,0.2448,0.2531,0.2536,0.2483,0.2545,0.2554,0.2571,0.259,0.2593,0.2599,0.26,0.2609,0.2608,0.2607,0.2657,0.2599,0.2599,0.2599,0.2684,0.2687,0.269,0,0,0,0,0,0,0.2427,0.2436,0.2528,0.2493,0.2505,0.2547,0.2566,0.2573,0.2594,0.2599,0.26,0.2612,0.2608,0.2607,0.2619,0.2654,0.2599,0.2599,0.2681,0.2685,0.2688,0.2734,0,0,0,0,0,0,0.2424,0.2435,0.2435,0.2492,0.2507,0.2562,0.2567,0.2575,0.26,0.2601,0.261,0.2608,0.2608,0.2619,0.2619,0.2653,0.2599,0.2678,0.2683,0.2687,0.2729,0.2738,0.2746,0,0,0,0,0,0.2419,0.2448,0.2435,0.2445,0.2509,0.2562,0.2572,0.2599,0.2601,0.2615,0.2626,0.2608,0.2648,0.262,0.2619,0.2655,0.2676,0.2682,0.2687,0.2725,0.2737,0.2746,0,0,0,0,0,0,0.2412,0.2455,0.2442,0.2483,0.2508,0.2567,0.2595,0.26,0.2624,0.2622,0.2623,0.2622,0.2654,0.2649,0.2619,0.2699,0.2666,0.2671,0.2696,0.2706,0.2714,0.2699,0.2599,0,0,0,0,0,0.2403,0.2425,0.2463,0.2488,0.2511,0.2545,0.2567,0.2578,0.261,0.2621,0.2633,0.2652,0.2679,0.2684,0.2704,0.273,0.2747,0.2761,0.2769,0.2776,0.2767,0.2842,0.2856,0.2707,0.2707,0.2707,0,0,0.2384,0.2429,0.2425,0.2484,0.2517,0.2545,0.2559,0.2599,0.2615,0.2612,0.265,0.2675,0.2694,0.2738,0.2752,0.2733,0.2832,0.2783,0.2789,0.2775,0.2849,0.2864,0.2876,0.2711,0.271,0.271,0,0,0.241,0.2425,0.246,0.2482,0.2531,0.2551,0.2558,0.2612,0.2636,0.2666,0.2684,0.2729,0.2757,0.2794,0.281,0.2876,0.2876,0.2888,0.2912,0.2986,0.2998,0.3009,0.306,0.3075,0.2891,0.2891,0.2891,0,0.2403,0.2437,0.2474,0.2524,0.2529,0.2551,0.2569,0.2607,0.265,0.2674,0.2679,0.2773,0.279,0.2853,0.2886,0.2894,0.2924,0.2866,0.2996,0.3007,0.3017,0.3066,0.3082,0.2894,0.2893,0.2893,0.2893,0,0.2426,0.2462,0.2498,0.2544,0.2557,0.2581,0.2615,0.2643,0.2667,0.2703,0.2777,0.2827,0.2879,0.2911,0.2913,0.3004,0.2999,0.2998,0.2963,0.3035,0.3082,0.3098,0.2898,0.2897,0.2896,0.2895,0,0,0.2401,0.2494,0.2497,0.252,0.2558,0.2576,0.261,0.2651,0.2682,0.275,0.2805,0.2892,0.2929,0.2952,0.2985,0.3052,0.3164,0.3054,0.3056,0.309,0.3317,0.3296,0.3311,0.3186,0.3189,0.3191,0.3323,0,0.2409,0.2489,0.2511,0.2542,0.2583,0.2591,0.2616,0.265,0.2699,0.2765,0.2848,0.2914,0.2943,0.2976,0.3055,0.3136,0.3206,0.3127,0.3252,0.3255,0.3218,0.3329,0.3174,0.3278,0.3339,0.3341,0.3343,0,0.2395,0.2472,0.2505,0.2562,0.2572,0.2575,0.2597,0.2624,0.2714,0.2757,0.2846,0.2911,0.303,0.3037,0.3224,0.3173,0.3244,0.3306,0.3312,0.3281,0.3264,0.3216,0.3304,0.3188,0.3367,0.3365,0.3363,0,0.2344,0.2441,0.2462,0.2474,0.255,0.2555,0.2568,0.2627,0.2655,0.2757,0.2797,0.2942,0.3016,0.3147,0.3281,0.3263,0.3471,0.3463,0.3511,0.3509,0.3394,0.3378,0.3368,0.3587,0.3587,0.3586,0.3586,0,0.2327,0.2347,0.2449,0.2468,0.249,0.2532,0.2547,0.2582,0.2647,0.2692,0.2795,0.2867,0.3048,0.3185,0.3299,0.3462,0.3497,0.3535,0.3556,0.3408,0.3392,0.3297,0.3226,0.3591,0.359,0.3589,0.3588,0,0.2263,0.2319,0.2373,0.2461,0.2475,0.2484,0.2515,0.2543,0.2598,0.2659,0.269,0.2838,0.3018,0.3186,0.34,0.348,0.3559,0.3667,0.3471,0.3467,0.3401,0.3338,0.3363,0.3342,0.376,0.3761,0.3761,0,0.2232,0.2264,0.235,0.2369,0.2408,0.2436,0.2451,0.2506,0.2541,0.2646,0.2682,0.285,0.2974,0.3271,0.3438,0.3639,0.3561,0.3596,0.3541,0.3394,0.3341,0.3296,0.3273,0.3412,0.341,0.3408,0.3406,0,0.2203,0.2223,0.2271,0.2327,0.235,0.2374,0.2411,0.2427,0.25,0.2558,0.2654,0.2753,0.3015,0.3159,0.3399,0.3506,0.3439,0.3562,0.3463,0.3117,0.3014,0.3002,0.3315,0.3388,0.339,0.3391,0.3392,0.3393,0.215,0.2175,0.2233,0.2264,0.2291,0.2302,0.2284,0.2349,0.2386,0.244,0.2586,0.2674,0.2862,0.3188,0.3267,0.3279,0.3366,0.3234,0.3189,0.3175,0.3086,0.3358,0.3422,0.3423,0.3425,0.3427,0.3428,0,0.21,0.2125,0.2165,0.2192,0.2178,0.2221,0.2242,0.2213,0.2231,0.2334,0.2412,0.2539,0.2684,0.2823,0.2931,0.2884,0.2878,0.2843,0.2698,0.2717,0.299,0.2901,0.2787,0.2787,0.2787,0.2787,0.2788,0.2788,0.2061,0.2073,0.2106,0.2071,0.2075,0.2019,0.2005,0.1992,0.2029,0.2049,0.2092,0.2194,0.2354,0.2488,0.2462,0.2467,0.2389,0.2351,0.244,0.2527,0.2558,0.2588,0.2488,0.229,0.2289,0.2112,0.211,0.2108]},{"header":{"parameterUnit":"m.s-1","parameterCategory":2,"la1":30.2991,"la2":30.254,"lo1":-89.0895,"lo2":-89.0444,"dy":0.0017,"dx":0.0017,"nx":28,"ny":28,"refTime":"2023-08-07T21:00:00:Z","depth":"0","parameterNumber":3,"parameterNumberName":"V-component_of_CURRENTS"},"data":[0,0,0,0,0,0,0,0,0,0,0,0,0,0,0,0,0,0,0,0,0,0,0,0,0,0,0,0,0,0,0,0,0,0,0,0,0,0,0,0,0,0,0,0,0,0,0,0,0,0,0,0,0,0,0,0,0,0,0.0355,0.0355,0,0.0375,0.0375,0.0375,0.0371,0.037,0.037,0.037,0.0294,0.0292,0.0291,0,0,0,0,0,0,0,0,0,0,0,0,0,0.0273,0.0275,0.0355,0.0355,0.0355,0.0375,0.0375,0.0375,0.0371,0.037,0.037,0.037,0.0295,0.0293,0.0291,0,0,0,0,0,0,0,0,0,0,0,0,0,0.0302,0.0276,0.0355,0.0356,0.0356,0.0375,0.0375,0.0375,0.0371,0.037,0.037,0.0369,0.0295,0.0293,0.029,0.0285,0,0,0.0282,0.0281,0,0,0,0,0,0,0,0,0.0301,0.0305,0.0355,0.0356,0.0356,0.037,0.0319,0.034,0.0371,0.0365,0.037,0.0369,0.0311,0.0307,0.0313,0.0281,0.0278,0.0282,0.0281,0.028,0.0279,0,0,0,0,0,0,0,0.0299,0.0304,0.0362,0.0356,0.0356,0.0342,0.0346,0.0323,0.0338,0.0365,0.0365,0.0368,0.0311,0.0316,0.0311,0.0277,0.0282,0.028,0.0278,0.0277,0.0262,0.0263,0,0,0,0,0,0,0.03,0.0303,0.0362,0.0363,0.0327,0.0344,0.0348,0.0366,0.0341,0.0337,0.0369,0.0368,0.032,0.0314,0.0308,0.033,0.028,0.0277,0.0276,0.0261,0.0262,0.0264,0,0,0,0,0,0,0.0299,0.0306,0.0361,0.0332,0.0338,0.0346,0.0366,0.0366,0.0375,0.0344,0.0339,0.0377,0.032,0.0312,0.0311,0.0325,0.0276,0.0274,0.026,0.0261,0.0263,0.0353,0,0,0,0,0,0,0.0297,0.0306,0.0323,0.0333,0.034,0.0384,0.0366,0.0367,0.0378,0.0377,0.0349,0.0342,0.0319,0.0316,0.0309,0.0321,0.0272,0.0258,0.0261,0.0263,0.0349,0.0358,0.0365,0,0,0,0,0,0.0294,0.032,0.0324,0.0331,0.0363,0.0385,0.0388,0.0389,0.0379,0.0393,0.0382,0.0343,0.0323,0.0315,0.0307,0.0318,0.0257,0.026,0.0262,0.0345,0.0356,0.0365,0,0,0,0,0,0,0.0284,0.0323,0.0327,0.0361,0.0376,0.0384,0.0398,0.0395,0.0399,0.0393,0.0362,0.0355,0.0359,0.0328,0.0319,0.032,0.0282,0.0283,0.0347,0.0357,0.0365,0.0371,0.027,0,0,0,0,0,0.0293,0.0329,0.035,0.0376,0.0387,0.0393,0.0402,0.0401,0.0404,0.0405,0.0393,0.0374,0.0363,0.0353,0.0339,0.0339,0.0308,0.0339,0.0348,0.0355,0.0355,0.0336,0.0342,0.0272,0.0272,0.0272,0,0,0.0281,0.032,0.0329,0.0377,0.0388,0.0415,0.0397,0.0415,0.0435,0.0393,0.042,0.0404,0.0371,0.0381,0.0378,0.0356,0.0361,0.0358,0.0365,0.036,0.0339,0.0346,0.0352,0.0274,0.0273,0.0273,0,0,0.029,0.0326,0.0357,0.0386,0.042,0.0431,0.0438,0.0456,0.0464,0.0485,0.0463,0.0464,0.0446,0.0437,0.0424,0.0466,0.0409,0.0454,0.0496,0.0478,0.0484,0.0488,0.0466,0.0468,0.0454,0.0454,0.0454,0,0.0279,0.0331,0.0364,0.041,0.0435,0.0441,0.0469,0.0485,0.0501,0.0511,0.0502,0.0499,0.0474,0.0481,0.0501,0.0485,0.0461,0.0462,0.0489,0.0493,0.0496,0.0472,0.0472,0.0459,0.0458,0.0458,0.0457,0,0.031,0.0357,0.038,0.0448,0.0478,0.0505,0.0534,0.0559,0.0567,0.0577,0.0595,0.0579,0.0572,0.0568,0.0547,0.0557,0.053,0.0507,0.0465,0.0508,0.048,0.0479,0.0466,0.0464,0.0462,0.0461,0,0,0.028,0.0379,0.039,0.0431,0.0502,0.0529,0.0574,0.0612,0.0638,0.0653,0.068,0.0676,0.0664,0.0649,0.0624,0.0612,0.0619,0.0572,0.0569,0.0552,0.0576,0.0526,0.0519,0.0599,0.0599,0.0599,0.0551,0,0.0294,0.0378,0.0427,0.0497,0.0541,0.0581,0.0627,0.0664,0.0687,0.0721,0.0708,0.0721,0.0695,0.0691,0.0681,0.0635,0.0619,0.0634,0.0534,0.0531,0.0483,0.0518,0.0539,0.0495,0.055,0.0549,0.0549,0,0.0319,0.0378,0.0442,0.054,0.056,0.06,0.0675,0.0715,0.0761,0.0776,0.079,0.0781,0.0778,0.0743,0.0693,0.0703,0.0647,0.0608,0.0605,0.0523,0.0479,0.0458,0.049,0.0408,0.0547,0.0547,0.0547,0,0.0303,0.0398,0.045,0.0485,0.0583,0.0616,0.0663,0.0725,0.0767,0.0806,0.083,0.0826,0.0817,0.0767,0.0697,0.0693,0.0629,0.0608,0.0511,0.0506,0.0486,0.0479,0.0426,0.0564,0.0564,0.0564,0.0564,0,0.0327,0.0372,0.0444,0.0482,0.0543,0.0612,0.0678,0.0725,0.0789,0.0841,0.085,0.0873,0.082,0.0783,0.0715,0.0613,0.064,0.0521,0.0492,0.0518,0.0515,0.0408,0.0369,0.0562,0.0563,0.0563,0.0563,0,0.0314,0.0365,0.0429,0.0515,0.0544,0.0587,0.0692,0.0745,0.0798,0.0862,0.0875,0.0901,0.0857,0.0793,0.0704,0.0624,0.047,0.0487,0.0518,0.0493,0.0318,0.0284,0.0108,0.0055,0.0377,0.0375,0.0374,0,0.0324,0.0351,0.0434,0.0477,0.0518,0.059,0.0652,0.0737,0.0798,0.0878,0.0909,0.0893,0.0899,0.0758,0.0627,0.05,0.0409,0.0405,0.0397,0.0312,0.0253,0.0162,0.0124,0.0412,0.0412,0.0411,0.041,0,0.0331,0.0346,0.0398,0.0474,0.0541,0.0619,0.0708,0.0759,0.0859,0.0915,0.0977,0.0987,0.0868,0.0758,0.0574,0.0485,0.0327,0.0383,0.0298,0.0277,0.0172,0.0107,0.0434,0.0404,0.0405,0.0405,0.0406,0.0406,0.0327,0.0355,0.0417,0.0489,0.0561,0.0652,0.0719,0.0815,0.0912,0.1031,0.1031,0.1093,0.0917,0.0682,0.0521,0.0271,0.0238,0.0202,0.0168,0.0082,0.0024,0.0325,0.0255,0.0255,0.0255,0.0255,0.0255,0,0.0336,0.0378,0.0441,0.0535,0.0602,0.0645,0.0768,0.0842,0.0953,0.1085,0.1158,0.1155,0.0919,0.0686,0.0328,0.0112,0.0016,0.0008,-0.0078,-0.0104,0.0182,0.0181,0.0089,0.0089,0.0089,0.0089,0.0089,0.0089,0.0355,0.0409,0.0445,0.0555,0.0616,0.072,0.0789,0.0893,0.1011,0.1183,0.1287,0.1355,0.1212,0.0509,0.0064,-0.0034,-0.022,-0.0286,-0.0378,-0.0122,-0.0105,-0.009,-0.01,-0.025,-0.025,-0.0655,-0.0658,-0.066]}],[{"header":{"parameterUnit":"m.s-1","parameterCategory":2,"la1":30.2991,"la2":30.254,"lo1":-89.0895,"lo2":-89.0444,"dy":0.0017,"dx":0.0017,"nx":28,"ny":28,"refTime":"2023-08-07T21:00:00:Z","depth":"2","parameterNumber":2,"parameterNumberName":"U-component_of_CURRENTS"},"data":[0,0,0,0,0,0,0,0,0,0,0,0,0,0,0,0,0,0,0,0,0,0,0,0,0,0,0,0,0,0,0,0,0,0,0,0,0,0,0,0,0,0,0,0,0,0,0,0,0,0,0,0,0,0,0,0,0,0,0.0462,0.0467,0,0.0534,0.0531,0.0528,0.0513,0.0516,0.052,0.0523,0.0992,0.1001,0.101,0,0,0,0,0,0,0,0,0,0,0,0,0,0.0463,0.0458,0.0462,0.0467,0.0473,0.0535,0.0531,0.0527,0.0512,0.0516,0.052,0.0524,0.0989,0.1,0.1011,0,0,0,0,0,0,0,0,0,0,0,0,0,0.0441,0.0456,0.0461,0.0512,0.0521,0.0536,0.0531,0.0526,0.0511,0.0516,0.0522,0.0527,0.0986,0.0999,0.1013,0.0993,0,0,0.1055,0.1061,0,0,0,0,0,0,0,0,0.0442,0.0434,0.0499,0.0509,0.052,0.0566,0.0707,0.072,0.051,0.0459,0.0523,0.0529,0.0918,0.0937,0.0858,0.1015,0.1035,0.1056,0.1065,0.1071,0.1074,0,0,0,0,0,0,0,0.0443,0.0433,0.0437,0.0506,0.0519,0.0589,0.0583,0.0704,0.0624,0.0464,0.0476,0.0567,0.0919,0.0843,0.0871,0.1042,0.1056,0.1068,0.1077,0.1082,0.139,0.1389,0,0,0,0,0,0,0.0525,0.0431,0.0436,0.0444,0.0553,0.0588,0.058,0.0503,0.0614,0.0649,0.0562,0.0567,0.0817,0.0855,0.0889,0.1097,0.107,0.1083,0.1091,0.139,0.139,0.1389,0,0,0,0,0,0,0.0521,0.0517,0.0433,0.0494,0.0495,0.0586,0.0498,0.0503,0.0553,0.0695,0.0727,0.0632,0.0823,0.087,0.1135,0.1109,0.109,0.1102,0.139,0.139,0.139,0.1374,0,0,0,0,0,0,0.0517,0.0509,0.0486,0.0492,0.0497,0.0543,0.0499,0.0502,0.062,0.0627,0.0764,0.0803,0.0831,0.1114,0.1149,0.1128,0.1113,0.139,0.139,0.139,0.1375,0.1374,0.1373,0,0,0,0,0,0.0513,0.0491,0.0478,0.0487,0.045,0.0553,0.0555,0.0607,0.0621,0.0658,0.0784,0.0805,0.1131,0.1131,0.117,0.1151,0.139,0.139,0.139,0.1376,0.1374,0.1373,0,0,0,0,0,0,0.0597,0.0492,0.0478,0.0453,0.0553,0.0574,0.062,0.067,0.0763,0.0805,0.0888,0.0938,0.1118,0.1165,0.1161,0.1227,0.1229,0.1237,0.1204,0.1204,0.1203,0.1129,0.1125,0,0,0,0,0,0.0578,0.0481,0.0503,0.0538,0.0534,0.0582,0.0639,0.0701,0.0807,0.0845,0.0911,0.1002,0.1108,0.1206,0.1277,0.1396,0.1367,0.1378,0.1377,0.1376,0.1337,0.1295,0.1286,0.1389,0.1389,0.1389,0,0,0.065,0.0603,0.0561,0.0548,0.0563,0.0589,0.0613,0.0744,0.0776,0.0901,0.0933,0.1038,0.1147,0.1229,0.1305,0.1302,0.1337,0.1375,0.1374,0.1335,0.1294,0.1284,0.1274,0.1388,0.1388,0.1388,0,0,0.0743,0.0657,0.0569,0.0612,0.0706,0.0714,0.0789,0.0813,0.08,0.0936,0.0975,0.109,0.1241,0.1243,0.1295,0.1346,0.1337,0.1368,0.1315,0.1276,0.1267,0.1258,0.1228,0.1216,0.1361,0.1361,0.1361,0,0.0745,0.0695,0.0628,0.0609,0.0681,0.0774,0.0812,0.0795,0.093,0.0921,0.0979,0.1092,0.1201,0.1268,0.1264,0.1334,0.1333,0.1323,0.1272,0.1262,0.1253,0.1224,0.1212,0.136,0.1361,0.1361,0.1361,0,0.0868,0.0764,0.0763,0.0669,0.0766,0.0841,0.0863,0.0876,0.091,0.091,0.0978,0.1073,0.116,0.1163,0.126,0.1232,0.126,0.1281,0.1271,0.1242,0.1214,0.1201,0.1359,0.136,0.136,0.136,0,0,0.0811,0.0767,0.0745,0.0709,0.0792,0.0875,0.0889,0.0895,0.0912,0.093,0.0913,0.1012,0.1064,0.1119,0.1196,0.1135,0.1093,0.1194,0.1193,0.1154,0.1029,0.1096,0.1089,0.1131,0.1128,0.1126,0.1042,0,0.0824,0.0762,0.0794,0.0819,0.0775,0.0848,0.0888,0.0962,0.0972,0.0952,0.0941,0.1025,0.1048,0.116,0.1089,0.1113,0.1057,0.1114,0.1069,0.1066,0.1122,0.1074,0.101,0.0934,0.1029,0.1027,0.1025,0,0.0887,0.0806,0.0802,0.079,0.079,0.0892,0.0977,0.1032,0.1024,0.1052,0.1062,0.1083,0.105,0.108,0.0989,0.1046,0.1039,0.0995,0.0993,0.1039,0.1108,0.0976,0.0907,0.1003,0.1005,0.1007,0.1008,0,0.0932,0.08,0.0798,0.0815,0.0853,0.0901,0.0984,0.1071,0.1115,0.1137,0.1193,0.1129,0.1183,0.1069,0.1029,0.1035,0.0889,0.0894,0.0911,0.0917,0.0836,0.084,0.0792,0.0792,0.0793,0.0793,0.0793,0,0.0939,0.0907,0.0804,0.0824,0.0874,0.0965,0.1069,0.1142,0.1243,0.1313,0.1292,0.1319,0.1191,0.1102,0.1008,0.093,0.0894,0.0869,0.0886,0.0836,0.0841,0.088,0.0892,0.079,0.079,0.0791,0.0792,0,0.1024,0.0965,0.0908,0.0877,0.0907,0.099,0.1149,0.1215,0.1351,0.1432,0.147,0.147,0.1403,0.1241,0.1087,0.098,0.085,0.0848,0.0808,0.0822,0.0894,0.0906,0.0799,0.0801,0.0802,0.0803,0.0804,0,0.1063,0.1039,0.0948,0.0991,0.0994,0.1076,0.1179,0.1301,0.1361,0.1506,0.1533,0.154,0.1497,0.1291,0.1135,0.0959,0.0945,0.0795,0.0768,0.086,0.0887,0.0898,0.0907,0.0651,0.065,0.065,0.0649,0,0.1107,0.1081,0.1042,0.1075,0.1156,0.1171,0.128,0.1325,0.1463,0.1528,0.1605,0.159,0.1496,0.1295,0.1137,0.0996,0.0801,0.0787,0.0857,0.0696,0.0723,0.0751,0.0763,0.0646,0.0646,0.0646,0.0646,0.0647,0.1133,0.1104,0.1082,0.1147,0.1237,0.1281,0.13,0.1367,0.1452,0.1542,0.1536,0.1468,0.1258,0.1007,0.0927,0.0887,0.0897,0.0731,0.0729,0.0729,0.0764,0.0795,0.0737,0.0737,0.0738,0.0739,0.0739,0,0.1082,0.1126,0.1175,0.1203,0.1302,0.136,0.1386,0.1358,0.139,0.1439,0.146,0.1074,0.0947,0.0854,0.0836,0.0764,0.0716,0.0686,0.0617,0.0619,0.0622,0.065,0.0593,0.0593,0.0593,0.0593,0,0,0.1097,0.1113,0.1118,0.1252,0.1336,0.1369,0.1371,0.1337,0.1291,0.1224,0.1146,0.0983,0.0835,0.067,0.0617,0.0691,0.0662,0.065,0.076,0.0688,0.0692,0.0628,0.0673,0,0,0,0,0]},{"header":{"parameterUnit":"m.s-1","parameterCategory":2,"la1":30.2991,"la2":30.254,"lo1":-89.0895,"lo2":-89.0444,"dy":0.0017,"dx":0.0017,"nx":28,"ny":28,"refTime":"2023-08-07T21:00:00:Z","depth":"2","parameterNumber":3,"parameterNumberName":"V-component_of_CURRENTS"},"data":[0,0,0,0,0,0,0,0,0,0,0,0,0,0,0,0,0,0,0,0,0,0,0,0,0,0,0,0,0,0,0,0,0,0,0,0,0,0,0,0,0,0,0,0,0,0,0,0,0,0,0,0,0,0,0,0,0,0,-0.006,-0.006,0,-0.0137,-0.0139,-0.014,-0.0254,-0.0254,-0.0255,-0.0256,-0.0293,-0.0294,-0.0294,0,0,0,0,0,0,0,0,0,0,0,0,0,-0.0044,-0.0045,-0.006,-0.006,-0.006,-0.0136,-0.0139,-0.0141,-0.0253,-0.0254,-0.0255,-0.0256,-0.0293,-0.0294,-0.0294,0,0,0,0,0,0,0,0,0,0,0,0,0,-0.0092,-0.0045,-0.006,-0.0115,-0.012,-0.0136,-0.0139,-0.0142,-0.0253,-0.0254,-0.0255,-0.0256,-0.0293,-0.0294,-0.0294,-0.0275,0,0,-0.0296,-0.0296,0,0,0,0,0,0,0,0,-0.0089,-0.0094,-0.0107,-0.0111,-0.0116,-0.0175,-0.0146,-0.018,-0.0253,-0.0217,-0.0256,-0.0257,-0.024,-0.0245,-0.0277,-0.0277,-0.0278,-0.0296,-0.0296,-0.0296,-0.0296,0,0,0,0,0,0,0,-0.0086,-0.0091,-0.0104,-0.0106,-0.0112,-0.0146,-0.0155,-0.0155,-0.0231,-0.022,-0.0225,-0.0212,-0.0245,-0.0277,-0.0278,-0.0279,-0.0296,-0.0296,-0.0296,-0.0296,-0.0319,-0.032,0,0,0,0,0,0,-0.0046,-0.0088,-0.0102,-0.0105,-0.009,-0.0144,-0.0155,-0.0166,-0.0232,-0.024,-0.021,-0.0216,-0.0275,-0.0278,-0.028,-0.0249,-0.0296,-0.0296,-0.0297,-0.0319,-0.0319,-0.032,0,0,0,0,0,0,-0.0046,-0.0047,-0.0098,-0.0086,-0.0093,-0.0141,-0.0154,-0.0167,-0.0198,-0.0223,-0.0233,-0.0227,-0.0276,-0.0279,-0.0259,-0.0251,-0.0297,-0.0297,-0.0319,-0.0319,-0.032,-0.0193,0,0,0,0,0,0,-0.0046,-0.0048,-0.0042,-0.0084,-0.0092,-0.0097,-0.0152,-0.0167,-0.0181,-0.0191,-0.0239,-0.0245,-0.0277,-0.0258,-0.026,-0.0253,-0.0298,-0.0318,-0.0319,-0.0319,-0.0197,-0.0189,-0.0183,0,0,0,0,0,-0.0045,-0.0031,-0.0042,-0.0042,-0.0084,-0.0094,-0.0104,-0.015,-0.018,-0.0187,-0.0207,-0.0244,-0.0266,-0.0256,-0.0259,-0.0252,-0.0318,-0.0319,-0.0319,-0.02,-0.0191,-0.0183,0,0,0,0,0,0,-0.0051,-0.004,-0.0054,-0.0047,-0.0059,-0.0108,-0.0107,-0.014,-0.0168,-0.0175,-0.0215,-0.022,-0.0224,-0.0248,-0.0238,-0.027,-0.0311,-0.0312,-0.022,-0.0211,-0.0204,-0.022,-0.0298,0,0,0,0,0,-0.0036,-0.0013,-0.0025,-0.0023,-0.0018,-0.0062,-0.0071,-0.0103,-0.0126,-0.0144,-0.0172,-0.0206,-0.0231,-0.0223,-0.0262,-0.0235,-0.0276,-0.0249,-0.0241,-0.0235,-0.0254,-0.0313,-0.0312,-0.0322,-0.0322,-0.0322,0,0,-0.0037,-0.0028,-0.0018,-0.0018,-0.0036,-0.0026,-0.0075,-0.0082,-0.0089,-0.0135,-0.0149,-0.0183,-0.0225,-0.0224,-0.0228,-0.0233,-0.024,-0.0236,-0.0229,-0.0252,-0.0313,-0.0312,-0.0311,-0.0323,-0.0323,-0.0322,0,0,-0.0016,-0.0019,0.0015,0.002,0.0025,0.0001,0.0008,-0.0028,-0.0057,-0.0051,-0.0109,-0.013,-0.0145,-0.0186,-0.0203,-0.0177,-0.0218,-0.0189,-0.0135,-0.0189,-0.0189,-0.0189,-0.0172,-0.0172,-0.0163,-0.0163,-0.0163,0,-0.0013,0.0016,0.0018,0.005,0.0063,0.0022,0.0046,0.0015,-0.0017,-0.0024,-0.0041,-0.0107,-0.014,-0.0152,-0.015,-0.0161,-0.0171,-0.0149,-0.0177,-0.0179,-0.0181,-0.0165,-0.0166,-0.0157,-0.0158,-0.0158,-0.0159,0,0.0027,0.006,0.0079,0.011,0.0118,0.0132,0.0115,0.0099,0.0072,0.0044,0.0017,-0.0031,-0.0068,-0.0085,-0.0099,-0.013,-0.012,-0.0172,-0.0188,-0.0172,-0.0156,-0.0159,-0.0148,-0.0151,-0.0152,-0.0154,0,0,0.0027,0.0098,0.0108,0.0138,0.0156,0.0161,0.0166,0.0159,0.0158,0.0117,0.0111,0.0056,0.0022,-0.0006,-0.0041,-0.0081,-0.0081,-0.0112,-0.0118,-0.0074,-0.0138,-0.0072,-0.007,-0.0123,-0.0125,-0.0126,-0.0093,0,0.0061,0.013,0.0161,0.0217,0.0249,0.024,0.0252,0.0237,0.0213,0.0196,0.0131,0.0106,0.0058,0.0052,0.0004,-0.0079,-0.0096,-0.0082,-0.0181,-0.0183,-0.0112,-0.0076,-0.0111,-0.0082,-0.0098,-0.0098,-0.0099,0,0.0098,0.0144,0.0199,0.0279,0.0294,0.0317,0.0328,0.0335,0.0304,0.0293,0.0257,0.0203,0.0151,0.0088,-0.0018,0.0005,-0.0058,-0.0121,-0.0123,-0.0123,-0.0128,-0.0119,-0.0089,-0.0106,-0.0105,-0.0105,-0.0104,0,0.0082,0.0183,0.0222,0.0244,0.0307,0.0331,0.0362,0.0356,0.037,0.0345,0.035,0.0278,0.0238,0.0135,0.0021,0.0007,-0.01,-0.014,-0.0134,-0.0126,-0.0212,-0.0211,-0.0234,-0.0234,-0.0234,-0.0234,-0.0234,0,0.0105,0.0153,0.022,0.0238,0.0304,0.0347,0.0397,0.0412,0.0431,0.0453,0.0399,0.0386,0.0236,0.0161,0.0057,-0.0024,-0.0066,-0.0119,-0.0127,-0.016,-0.0154,-0.0248,-0.025,-0.0233,-0.0233,-0.0233,-0.0233,0,0.0086,0.0123,0.018,0.0257,0.0291,0.0331,0.0439,0.0477,0.0495,0.0517,0.0516,0.0462,0.0379,0.0254,0.0092,0.0037,-0.0064,-0.0091,-0.0073,-0.0079,-0.005,-0.0046,-0.0056,-0.0053,-0.0051,-0.005,-0.0049,0,0.0095,0.0104,0.0176,0.0223,0.0268,0.0348,0.0412,0.0484,0.053,0.0559,0.057,0.051,0.0485,0.0332,0.0178,0.0062,-0.0015,-0.0023,-0.0081,-0.0031,-0.0038,-0.0038,-0.0037,-0.0119,-0.0118,-0.0118,-0.0117,0,0.0098,0.0092,0.0132,0.0225,0.03,0.0397,0.05,0.0547,0.0618,0.0658,0.0685,0.0673,0.053,0.0379,0.0237,0.0146,0.0001,-0.001,-0.0009,-0.0144,-0.0085,-0.0093,-0.0092,-0.0112,-0.0113,-0.0113,-0.0113,-0.0114,0.0093,0.0121,0.016,0.0261,0.0343,0.0456,0.0542,0.0645,0.074,0.0828,0.0795,0.0768,0.0497,0.0315,0.0181,0.0071,0.0079,-0.0006,-0.0012,-0.0017,-0.0016,0.0044,0.0046,0.0046,0.0047,0.0047,0.0047,0,0.0119,0.0149,0.0225,0.0335,0.0429,0.0474,0.0612,0.0701,0.0825,0.0876,0.0939,0.0662,0.0519,0.0272,0.012,0.0035,-0.0007,-0.0009,-0.0091,-0.0094,-0.0097,-0.0105,-0.0064,-0.0065,-0.0065,-0.0066,0,0,0.0133,0.0191,0.0241,0.0398,0.0477,0.0609,0.069,0.0805,0.0866,0.0929,0.0887,0.0824,0.0482,0.0289,0.012,0.0055,0.0027,0.0053,0.0151,0.0074,0.0072,-0.009,-0.0102,0,0,0,0,0]}],[{"header":{"parameterUnit":"m.s-1","parameterCategory":2,"la1":30.2991,"la2":30.254,"lo1":-89.0895,"lo2":-89.0444,"dy":0.0017,"dx":0.0017,"nx":28,"ny":28,"refTime":"2023-08-07T21:00:00:Z","depth":"4","parameterNumber":2,"parameterNumberName":"U-component_of_CURRENTS"},"data":[0,0,0,0,0,0,0,0,0,0,0,0,0,0,0,0,0,0,0,0,0,0,0,0,0,0,0,0,0,0,0,0,0,0,0,0,0,0,0,0,0,0,0,0,0,0,0,0,0,0,0,0,0,0,0,0,0,0,-0.0606,-0.0607,0,-0.0643,-0.0643,-0.0643,-0.0665,-0.0665,-0.0666,-0.0666,-0.0785,-0.0787,-0.079,0,0,0,0,0,0,0,0,0,0,0,0,0,-0.0571,-0.0571,-0.0606,-0.0607,-0.0608,-0.0643,-0.0643,-0.0643,-0.0664,-0.0665,-0.0666,-0.0667,-0.0784,-0.0787,-0.079,0,0,0,0,0,0,0,0,0,0,0,0,0,-0.0589,-0.0571,-0.0606,-0.0627,-0.063,-0.0643,-0.0643,-0.0643,-0.0664,-0.0665,-0.0666,-0.0667,-0.0783,-0.0787,-0.0791,-0.0795,0,0,-0.0802,-0.0804,0,0,0,0,0,0,0,0,-0.0588,-0.059,-0.0623,-0.0626,-0.0629,-0.0655,-0.0675,-0.07,-0.0664,-0.0645,-0.0666,-0.0668,-0.0752,-0.0759,-0.0754,-0.0801,-0.0806,-0.0803,-0.0805,-0.0807,-0.0808,0,0,0,0,0,0,0,-0.0587,-0.0589,-0.0615,-0.0624,-0.0628,-0.0642,-0.0644,-0.0679,-0.069,-0.0647,-0.065,-0.0663,-0.0754,-0.075,-0.0757,-0.0808,-0.0803,-0.0806,-0.0808,-0.081,-0.0971,-0.0973,0,0,0,0,0,0,-0.0592,-0.0587,-0.0614,-0.0616,-0.0617,-0.0642,-0.0645,-0.0641,-0.0688,-0.0697,-0.0662,-0.0664,-0.0743,-0.0753,-0.0762,-0.0939,-0.0807,-0.081,-0.0812,-0.0969,-0.0971,-0.0973,0,0,0,0,0,0,-0.0591,-0.0593,-0.0612,-0.0609,-0.0613,-0.0642,-0.0638,-0.0642,-0.0678,-0.07,-0.0709,-0.07,-0.0744,-0.0756,-0.0789,-0.0938,-0.0812,-0.0815,-0.0966,-0.0969,-0.0972,-0.1187,0,0,0,0,0,0,-0.0589,-0.0592,-0.0608,-0.0608,-0.0613,-0.0638,-0.0637,-0.0642,-0.0685,-0.0689,-0.0735,-0.0744,-0.0746,-0.0783,-0.0793,-0.0941,-0.0818,-0.0964,-0.0968,-0.0971,-0.1178,-0.1197,-0.1214,0,0,0,0,0,-0.0588,-0.0594,-0.0607,-0.0612,-0.0627,-0.0639,-0.0643,-0.0663,-0.0687,-0.07,-0.0713,-0.0745,-0.0816,-0.0786,-0.0797,-0.0951,-0.0962,-0.0967,-0.0971,-0.1169,-0.1193,-0.1213,0,0,0,0,0,0,-0.0589,-0.0598,-0.0612,-0.0623,-0.0643,-0.0646,-0.0674,-0.0688,-0.0709,-0.0729,-0.0742,-0.0751,-0.0837,-0.0834,-0.0801,-0.0998,-0.0908,-0.0914,-0.1055,-0.1077,-0.1095,-0.1092,-0.0822,0,0,0,0,0,-0.0597,-0.0607,-0.0619,-0.0636,-0.0652,-0.0674,-0.0692,-0.0706,-0.0721,-0.0733,-0.0768,-0.0809,-0.0858,-0.0915,-0.0925,-0.1033,-0.0966,-0.114,-0.1159,-0.1175,-0.1174,-0.116,-0.1177,-0.0988,-0.0988,-0.0988,0,0,-0.0608,-0.0615,-0.0624,-0.0639,-0.0663,-0.0682,-0.0686,-0.0726,-0.0753,-0.0746,-0.0809,-0.0854,-0.0881,-0.0987,-0.1036,-0.1021,-0.1191,-0.118,-0.1195,-0.1185,-0.1166,-0.1185,-0.1201,-0.0991,-0.099,-0.099,0,0,-0.062,-0.0641,-0.0652,-0.0664,-0.0705,-0.0721,-0.0743,-0.0776,-0.0806,-0.0868,-0.0878,-0.0988,-0.1061,-0.1127,-0.1167,-0.1286,-0.1254,-0.1332,-0.1481,-0.1469,-0.1485,-0.1498,-0.1432,-0.1437,-0.1385,-0.1386,-0.1386,0,-0.0636,-0.0647,-0.0662,-0.0671,-0.0693,-0.0744,-0.0765,-0.0797,-0.0839,-0.0885,-0.0911,-0.1082,-0.1131,-0.128,-0.1352,-0.1342,-0.1293,-0.1412,-0.1496,-0.1507,-0.1517,-0.1446,-0.1449,-0.1397,-0.1395,-0.1394,-0.1393,0,-0.0653,-0.0666,-0.0681,-0.071,-0.0728,-0.0766,-0.0803,-0.0853,-0.0934,-0.0993,-0.1153,-0.1237,-0.1361,-0.1436,-0.1454,-0.1602,-0.1528,-0.149,-0.1449,-0.155,-0.1467,-0.1467,-0.1412,-0.1408,-0.1405,-0.1402,0,0,-0.0665,-0.0691,-0.0689,-0.0707,-0.0757,-0.0769,-0.0831,-0.091,-0.0991,-0.1121,-0.1251,-0.1437,-0.1554,-0.1602,-0.1687,-0.1739,-0.1806,-0.1691,-0.1685,-0.1639,-0.1743,-0.1514,-0.149,-0.1794,-0.1796,-0.1797,-0.1656,0,-0.0685,-0.068,-0.0705,-0.0739,-0.075,-0.0807,-0.0856,-0.0934,-0.1057,-0.1192,-0.1366,-0.1529,-0.1598,-0.174,-0.1806,-0.1774,-0.1815,-0.1844,-0.1638,-0.1631,-0.1428,-0.1486,-0.1801,-0.1655,-0.1654,-0.1654,-0.1654,0,-0.068,-0.0684,-0.0703,-0.0743,-0.0761,-0.0827,-0.0938,-0.1004,-0.1184,-0.1307,-0.1531,-0.1625,-0.1804,-0.1834,-0.1861,-0.1876,-0.1847,-0.1812,-0.1804,-0.151,-0.1401,-0.153,-0.1652,-0.1652,-0.1652,-0.1652,-0.1652,0,-0.0643,-0.0671,-0.0692,-0.0706,-0.0776,-0.085,-0.0938,-0.108,-0.1164,-0.1441,-0.1534,-0.1733,-0.1833,-0.1847,-0.1801,-0.1849,-0.1727,-0.1761,-0.1515,-0.1495,-0.1651,-0.1638,-0.1762,-0.1762,-0.1762,-0.1763,-0.1763,0,-0.0635,-0.0649,-0.0706,-0.0733,-0.0807,-0.0877,-0.1019,-0.1149,-0.1346,-0.1419,-0.165,-0.1672,-0.1839,-0.1775,-0.1772,-0.1592,-0.1693,-0.1524,-0.1451,-0.174,-0.174,-0.1649,-0.1638,-0.1757,-0.1758,-0.1759,-0.176,0,-0.06,-0.0624,-0.0651,-0.0748,-0.0803,-0.0879,-0.1067,-0.1135,-0.1358,-0.1458,-0.1546,-0.1636,-0.1509,-0.1551,-0.1498,-0.1487,-0.1382,-0.1295,-0.1544,-0.1487,-0.1178,-0.118,-0.1043,-0.1034,-0.1027,-0.102,-0.1015,0,-0.0576,-0.0585,-0.0659,-0.068,-0.077,-0.0895,-0.0947,-0.1172,-0.122,-0.1326,-0.1306,-0.1274,-0.1278,-0.1008,-0.1086,-0.1032,-0.1038,-0.1046,-0.1212,-0.1165,-0.1109,-0.1123,-0.1134,-0.1002,-0.1,-0.0998,-0.0996,0,-0.0533,-0.0565,-0.059,-0.0646,-0.0718,-0.0736,-0.0847,-0.0882,-0.1035,-0.1194,-0.1047,-0.1015,-0.0827,-0.0785,-0.075,-0.0721,-0.1097,-0.0968,-0.0987,-0.1143,-0.1114,-0.1069,-0.1089,-0.097,-0.0973,-0.0976,-0.0978,0,-0.0504,-0.049,-0.0523,-0.0584,-0.0615,-0.0577,-0.0647,-0.0629,-0.0704,-0.0845,-0.0709,-0.0666,-0.0696,-0.0601,-0.0526,-0.0515,-0.0561,-0.0668,-0.0705,-0.0736,-0.0712,-0.0634,-0.0267,0,0,0,0,0,-0.0452,-0.0431,-0.0449,-0.0453,-0.0465,-0.0496,-0.0539,-0.0587,-0.0694,-0.0548,-0.0674,-0.0484,-0.0405,-0.036,-0.0288,-0.0401,-0.0577,-0.0326,-0.0724,-0.0821,-0.0852,-0.0859,0,0,0,0,0,0,-0.0407,-0.0409,-0.0416,-0.0338,-0.0322,-0.0298,-0.0321,-0.0372,-0.0301,-0.0416,-0.0321,-0.0458,-0.0328,-0.0398,-0.0264,-0.0272,-0.0521,-0.0336,-0.0335,-0.0804,-0.0832,-0.0857,-0.0875,0,0,0,0,0]},{"header":{"parameterUnit":"m.s-1","parameterCategory":2,"la1":30.2991,"la2":30.254,"lo1":-89.0895,"lo2":-89.0444,"dy":0.0017,"dx":0.0017,"nx":28,"ny":28,"refTime":"2023-08-07T21:00:00:Z","depth":"4","parameterNumber":3,"parameterNumberName":"V-component_of_CURRENTS"},"data":[0,0,0,0,0,0,0,0,0,0,0,0,0,0,0,0,0,0,0,0,0,0,0,0,0,0,0,0,0,0,0,0,0,0,0,0,0,0,0,0,0,0,0,0,0,0,0,0,0,0,0,0,0,0,0,0,0,0,-0.0115,-0.0114,0,-0.0109,-0.0109,-0.0109,-0.0098,-0.0097,-0.0097,-0.0096,-0.0133,-0.0134,-0.0136,0,0,0,0,0,0,0,0,0,0,0,0,0,-0.0135,-0.0135,-0.0115,-0.0114,-0.0114,-0.0109,-0.0109,-0.011,-0.0098,-0.0097,-0.0096,-0.0096,-0.0132,-0.0134,-0.0136,0,0,0,0,0,0,0,0,0,0,0,0,0,-0.0131,-0.0135,-0.0115,-0.0105,-0.0104,-0.0109,-0.0109,-0.011,-0.0098,-0.0097,-0.0096,-0.0096,-0.0132,-0.0134,-0.0136,-0.0166,0,0,-0.0143,-0.0144,0,0,0,0,0,0,0,0,-0.0131,-0.0131,-0.0107,-0.0106,-0.0104,-0.01,-0.013,-0.0129,-0.0098,-0.0104,-0.0096,-0.0095,-0.0124,-0.0127,-0.0132,-0.0168,-0.0169,-0.0143,-0.0144,-0.0145,-0.0146,0,0,0,0,0,0,0,-0.0131,-0.0131,-0.0116,-0.0106,-0.0105,-0.0108,-0.0106,-0.013,-0.0122,-0.0103,-0.0101,-0.0096,-0.0124,-0.013,-0.0133,-0.017,-0.0143,-0.0145,-0.0146,-0.0147,-0.0227,-0.0228,0,0,0,0,0,0,-0.0125,-0.0131,-0.0116,-0.0115,-0.0112,-0.0108,-0.0106,-0.0105,-0.0121,-0.0121,-0.0097,-0.0095,-0.0126,-0.013,-0.0134,-0.0161,-0.0145,-0.0147,-0.0149,-0.0226,-0.0227,-0.0228,0,0,0,0,0,0,-0.0126,-0.0124,-0.0116,-0.012,-0.0119,-0.0108,-0.0107,-0.0105,-0.0108,-0.0115,-0.0116,-0.0099,-0.0126,-0.0131,-0.016,-0.0163,-0.0148,-0.015,-0.0225,-0.0226,-0.0228,-0.0222,0,0,0,0,0,0,-0.0127,-0.0125,-0.0134,-0.012,-0.0118,-0.0126,-0.0107,-0.0106,-0.0104,-0.0102,-0.0118,-0.012,-0.0126,-0.0157,-0.0162,-0.0166,-0.0152,-0.0224,-0.0226,-0.0227,-0.0221,-0.0223,-0.0224,0,0,0,0,0,-0.0128,-0.0132,-0.0134,-0.0133,-0.0127,-0.0126,-0.0127,-0.0118,-0.0105,-0.0115,-0.0124,-0.012,-0.017,-0.016,-0.0166,-0.017,-0.0223,-0.0225,-0.0227,-0.022,-0.0222,-0.0224,0,0,0,0,0,0,-0.0136,-0.0131,-0.0133,-0.0133,-0.0135,-0.0123,-0.0128,-0.012,-0.0134,-0.0134,-0.0136,-0.0141,-0.0176,-0.0175,-0.0164,-0.0198,-0.0194,-0.0197,-0.0186,-0.0189,-0.019,-0.0145,-0.0154,0,0,0,0,0,-0.0145,-0.0156,-0.0146,-0.0151,-0.0149,-0.0142,-0.0142,-0.0137,-0.014,-0.0144,-0.0157,-0.0169,-0.019,-0.0189,-0.0222,-0.0233,-0.0206,-0.0239,-0.024,-0.0241,-0.021,-0.0172,-0.0165,-0.0234,-0.0234,-0.0234,0,0,-0.0152,-0.0149,-0.0156,-0.0156,-0.0154,-0.0177,-0.0141,-0.0142,-0.0172,-0.0148,-0.0196,-0.0193,-0.0203,-0.0226,-0.0238,-0.0218,-0.0216,-0.0244,-0.0244,-0.0211,-0.0173,-0.0165,-0.0159,-0.0235,-0.0235,-0.0235,0,0,-0.0171,-0.0166,-0.0184,-0.0193,-0.0194,-0.0197,-0.0198,-0.0196,-0.0204,-0.0236,-0.0231,-0.0223,-0.026,-0.0254,-0.0256,-0.0285,-0.0244,-0.029,-0.0235,-0.02,-0.0192,-0.0186,-0.0167,-0.0158,-0.0266,-0.0266,-0.0266,0,-0.0182,-0.0205,-0.019,-0.0213,-0.0231,-0.021,-0.0244,-0.0255,-0.0269,-0.0285,-0.0257,-0.0273,-0.0275,-0.0278,-0.0256,-0.0288,-0.0247,-0.0226,-0.0197,-0.019,-0.0183,-0.0165,-0.0155,-0.0266,-0.0266,-0.0266,-0.0266,0,-0.0217,-0.0245,-0.0252,-0.0289,-0.0308,-0.0327,-0.034,-0.0361,-0.0358,-0.0367,-0.0372,-0.0335,-0.0314,-0.0319,-0.0277,-0.0229,-0.0213,-0.0222,-0.0184,-0.0175,-0.0158,-0.0148,-0.0266,-0.0266,-0.0266,-0.0266,0,0,-0.022,-0.0271,-0.0277,-0.0316,-0.0351,-0.0368,-0.0421,-0.0462,-0.0496,-0.0465,-0.0473,-0.0433,-0.035,-0.0339,-0.0279,-0.0208,-0.012,-0.0147,-0.0146,-0.0111,-0.0021,-0.0137,-0.0138,-0.0096,-0.0094,-0.0092,-0.0037,0,-0.0257,-0.0314,-0.0342,-0.0421,-0.0451,-0.0475,-0.0531,-0.0566,-0.0579,-0.0586,-0.0501,-0.0477,-0.0379,-0.0308,-0.0225,-0.0152,-0.0087,-0.0133,-0.0047,-0.0045,-0.0135,-0.0128,-0.0085,-0.0029,-0.0027,-0.0025,-0.0024,0,-0.0286,-0.0322,-0.04,-0.0488,-0.0506,-0.0568,-0.0646,-0.0683,-0.0697,-0.068,-0.0599,-0.0523,-0.0376,-0.0298,-0.0124,-0.0138,-0.0051,0.0001,0.0003,-0.0089,-0.0142,-0.0036,-0.0006,-0.0007,-0.0009,-0.001,-0.0011,0,-0.0285,-0.0368,-0.0437,-0.0467,-0.0559,-0.0619,-0.0664,-0.0721,-0.0746,-0.0694,-0.0664,-0.0528,-0.0412,-0.0271,-0.011,-0.0079,0.0037,0.0056,0.0011,0.0003,0.0092,0.0085,0.0162,0.0162,0.0162,0.0162,0.0162,0,-0.0312,-0.037,-0.0449,-0.0493,-0.0593,-0.0634,-0.0731,-0.0758,-0.0766,-0.0773,-0.066,-0.0593,-0.0378,-0.0281,-0.0139,-0.0042,0.0013,0.0032,0.0016,0.0086,0.0077,0.0098,0.009,0.0164,0.0163,0.0163,0.0163,0,-0.0319,-0.0363,-0.0448,-0.0554,-0.0604,-0.0662,-0.0766,-0.0809,-0.0797,-0.0781,-0.0722,-0.0611,-0.047,-0.0346,-0.0162,-0.0104,-0.0005,0.0,0.0043,0.0025,-0.0046,-0.0055,-0.0007,-0.0011,-0.0014,-0.0016,-0.0018,0,-0.0335,-0.0372,-0.0493,-0.055,-0.0619,-0.0709,-0.0776,-0.0812,-0.0813,-0.0786,-0.074,-0.064,-0.0548,-0.0384,-0.0275,-0.0119,-0.0097,-0.0059,0.0003,-0.0039,-0.006,-0.0064,-0.0068,-0.0023,-0.0024,-0.0025,-0.0025,0,-0.0364,-0.0401,-0.0472,-0.0571,-0.0663,-0.0748,-0.0811,-0.0794,-0.0787,-0.0802,-0.0697,-0.0619,-0.0535,-0.0392,-0.0324,-0.0198,-0.0081,-0.0088,-0.0079,-0.002,-0.0058,-0.0076,-0.0077,-0.0036,-0.0034,-0.0033,-0.0033,0,-0.0391,-0.0428,-0.05,-0.0583,-0.0692,-0.0733,-0.0772,-0.0751,-0.0749,-0.0679,-0.0662,-0.0577,-0.0531,-0.044,-0.0361,-0.0285,-0.0228,-0.0161,-0.0147,-0.0135,-0.0206,-0.0275,-0.0321,0,0,0,0,0,-0.0404,-0.0426,-0.0506,-0.0574,-0.0668,-0.0718,-0.0776,-0.0778,-0.0756,-0.0668,-0.0651,-0.0561,-0.0471,-0.0441,-0.037,-0.0423,-0.0239,-0.0346,-0.0158,-0.0093,-0.0081,-0.0156,0,0,0,0,0,0,-0.0417,-0.0475,-0.0487,-0.0541,-0.0574,-0.0659,-0.0686,-0.0675,-0.0599,-0.0579,-0.051,-0.054,-0.0436,-0.0476,-0.0354,-0.0349,-0.0223,-0.0321,-0.032,-0.0099,-0.0089,-0.0079,-0.0152,0,0,0,0,0]}]]